| time (UTC) | temp C | wind direction | speed KPH | gust KPH | rain 1hr cm | rain 24hr cm | rain mn cm | humidity % | barometer mb |
| 20260507050602 | 13 | 275 | 14.5 | 24.1 | 0.00 | 0.18 | 0.00 | 97 | 1007.3 |
| 20260507045603 | 13 | 278 | 16.1 | 22.5 | 0.03 | 0.18 | 0.18 | 97 | 1007.5 |
| 20260507044602 | 13 | 269 | 16.1 | 25.7 | 0.03 | 0.18 | 0.18 | 97 | 1007.4 |
| 20260507043603 | 13 | 261 | 20.9 | 27.4 | 0.03 | 0.18 | 0.18 | 97 | 1007.5 |
| 20260507042602 | 13 | 252 | 16.1 | 25.7 | 0.03 | 0.18 | 0.18 | 97 | 1007.3 |
| 20260507041603 | 13 | 246 | 17.7 | 29.0 | 0.03 | 0.18 | 0.18 | 97 | 1007.4 |
| 20260507040644 | 13 | 246 | 17.7 | 25.7 | 0.00 | 0.15 | 0.15 | 97 | 1007.3 |
| 20260507035603 | 13 | 248 | 14.5 | 29.0 | 0.00 | 0.15 | 0.15 | 97 | 1007.5 |
| 20260507034602 | 13 | 230 | 20.9 | 33.8 | 0.00 | 0.15 | 0.15 | 97 | 1007.5 |
| 20260507032602 | 13 | 217 | 22.5 | 33.8 | 0.00 | 0.15 | 0.15 | 97 | 1007.4 |
| 20260507031624 | 13 | 222 | 22.5 | 32.2 | 0.00 | 0.15 | 0.15 | 97 | 1007.2 |
| 20260507030603 | 13 | 221 | 19.3 | 30.6 | 0.00 | 0.15 | 0.15 | 97 | 1007.1 |
| 20260507025603 | 13 | 215 | 20.9 | 32.2 | 0.00 | 0.15 | 0.15 | 97 | 1007.0 |
| 20260507024602 | 13 | 213 | 22.5 | 33.8 | 0.00 | 0.15 | 0.15 | 97 | 1006.9 |
| 20260507023603 | 13 | 212 | 22.5 | 35.4 | 0.00 | 0.15 | 0.15 | 97 | 1007.0 |
| 20260507021603 | 13 | 211 | 22.5 | 37.0 | 0.00 | 0.15 | 0.15 | 96 | 1007.0 |
| 20260507020602 | 13 | 209 | 24.1 | 35.4 | 0.00 | 0.15 | 0.15 | 96 | 1007.1 |
| 20260507015603 | 12 | 197 | 22.5 | 35.4 | 0.00 | 0.15 | 0.15 | 96 | 1007.0 |
| 20260507014602 | 12 | 198 | 22.5 | 38.6 | 0.00 | 0.15 | 0.15 | 96 | 1007.2 |
| 20260507013603 | 12 | 202 | 24.1 | 37.0 | 0.00 | 0.15 | 0.15 | 96 | 1007.3 |
| 20260507012603 | 12 | 205 | 22.5 | 33.8 | 0.00 | 0.15 | 0.15 | 96 | 1007.5 |
| 20260507011603 | 12 | 212 | 24.1 | 35.4 | 0.00 | 0.15 | 0.15 | 96 | 1007.6 |
| 20260507010603 | 12 | 212 | 20.9 | 32.2 | 0.00 | 0.15 | 0.15 | 96 | 1007.6 |
| 20260507005603 | 12 | 216 | 24.1 | 37.0 | 0.00 | 0.15 | 0.15 | 96 | 1007.7 |
| 20260507004602 | 12 | 207 | 20.9 | 40.2 | 0.00 | 0.15 | 0.15 | 96 | 1007.6 |
| 20260507002624 | 12 | 201 | 29.0 | 54.7 | 0.00 | 0.15 | 0.15 | 96 | 1007.4 |
| 20260507001602 | 12 | 192 | 32.2 | 49.9 | 0.00 | 0.15 | 0.15 | 96 | 1007.4 |
| 20260507000603 | 12 | 200 | 27.4 | 51.5 | 0.00 | 0.15 | 0.15 | 96 | 1007.3 |
| 20260506235624 | 12 | 195 | 29.0 | 53.1 | 0.00 | 0.15 | 0.15 | 96 | 1007.3 |
| 20260506234624 | 12 | 191 | 33.8 | 53.1 | 0.00 | 0.15 | 0.15 | 96 | 1007.2 |
| 20260506233603 | 12 | 193 | 30.6 | 53.1 | 0.00 | 0.15 | 0.15 | 95 | 1007.1 |
| 20260506232602 | 12 | 191 | 32.2 | 49.9 | 0.00 | 0.15 | 0.15 | 95 | 1007.2 |
| 20260506231603 | 12 | 184 | 35.4 | 56.3 | 0.00 | 0.15 | 0.15 | 95 | 1007.2 |
| 20260506230602 | 12 | 193 | 27.4 | 45.1 | 0.00 | 0.15 | 0.15 | 95 | 1007.3 |
| 20260506225602 | 12 | 191 | 25.7 | 46.7 | 0.03 | 0.15 | 0.15 | 95 | 1007.4 |
| 20260506224603 | 13 | 188 | 24.1 | 49.9 | 0.03 | 0.15 | 0.15 | 95 | 1007.3 |
| 20260506223602 | 13 | 188 | 25.7 | 57.9 | 0.03 | 0.15 | 0.15 | 95 | 1007.4 |
| 20260506222645 | 13 | 189 | 24.1 | 54.7 | 0.00 | 0.13 | 0.13 | 95 | 1007.6 |
| 20260506221603 | 13 | 187 | 30.6 | 49.9 | 0.00 | 0.13 | 0.13 | 94 | 1007.6 |
| 20260506220603 | 13 | 188 | 29.0 | 56.3 | 0.00 | 0.13 | 0.13 | 94 | 1007.8 |
| 20260506215602 | 13 | 194 | 32.2 | 51.5 | 0.05 | 0.13 | 0.13 | 94 | 1007.8 |
| 20260506214603 | 13 | 196 | 29.0 | 46.7 | 0.03 | 0.10 | 0.10 | 94 | 1007.9 |
| 20260506213602 | 13 | 191 | 30.6 | 49.9 | 0.03 | 0.10 | 0.10 | 93 | 1007.9 |
| 20260506212602 | 13 | 197 | 30.6 | 54.7 | 0.03 | 0.10 | 0.10 | 93 | 1007.9 |
| 20260506211624 | 13 | 192 | 27.4 | 57.9 | 0.03 | 0.10 | 0.10 | 93 | 1008.0 |
| 20260506210602 | 14 | 198 | 32.2 | 45.1 | 0.00 | 0.08 | 0.08 | 92 | 1008.0 |
| 20260506205603 | 14 | 192 | 32.2 | 59.5 | 0.05 | 0.05 | 0.05 | 91 | 1008.1 |
| 20260506204602 | 14 | 192 | 32.2 | 53.1 | 0.03 | 0.03 | 0.03 | 90 | 1008.0 |
| 20260506203603 | 15 | 195 | 29.0 | 53.1 | 0.03 | 0.03 | 0.03 | 90 | 1008.3 |
| 20260506202602 | 15 | 193 | 38.6 | 57.9 | 0.00 | 0.00 | 0.00 | 89 | 1008.3 |
| 20260506201603 | 15 | 188 | 38.6 | 57.9 | 0.00 | 0.00 | 0.00 | 87 | 1008.3 |
| 20260506200603 | 15 | 181 | 27.4 | 51.5 | 0.00 | 0.00 | 0.00 | 85 | 1008.4 |
| 20260506195603 | 16 | 196 | 37.0 | 57.9 | 0.00 | 0.00 | 0.00 | 84 | 1008.4 |
| 20260506194602 | 16 | 188 | 32.2 | 49.9 | 0.00 | 0.00 | 0.00 | 81 | 1008.4 |
| 20260506193603 | 16 | 187 | 30.6 | 53.1 | 0.00 | 0.00 | 0.00 | 79 | 1008.6 |
| 20260506192624 | 16 | 196 | 30.6 | 45.1 | 0.00 | 0.00 | 0.00 | 78 | 1008.6 |
| 20260506191603 | 17 | 191 | 27.4 | 51.5 | 0.00 | 0.00 | 0.00 | 75 | 1008.8 |
| 20260506190603 | 17 | 198 | 27.4 | 59.5 | 0.00 | 0.00 | 0.00 | 72 | 1008.7 |
| 20260506185603 | 17 | 202 | 27.4 | 61.2 | 0.00 | 0.00 | 0.00 | 70 | 1008.6 |
| 20260506184603 | 18 | 201 | 29.0 | 54.7 | 0.00 | 0.00 | 0.00 | 70 | 1008.7 |
| 20260506183602 | 18 | 202 | 33.8 | 72.4 | 0.00 | 0.00 | 0.00 | 70 | 1008.7 |
| 20260506182602 | 18 | 196 | 38.6 | 70.8 | 0.00 | 0.00 | 0.00 | 70 | 1008.8 |
| 20260506181603 | 18 | 186 | 30.6 | 66.0 | 0.00 | 0.00 | 0.00 | 70 | 1008.9 |
| 20260506180602 | 18 | 185 | 32.2 | 59.5 | 0.00 | 0.00 | 0.00 | 69 | 1008.9 |
| 20260506175624 | 19 | 185 | 35.4 | 57.9 | 0.00 | 0.00 | 0.00 | 66 | 1009.2 |
| 20260506174603 | 20 | 188 | 24.1 | 57.9 | 0.00 | 0.00 | 0.00 | 64 | 1009.3 |
| 20260506173603 | 19 | 206 | 35.4 | 64.4 | 0.00 | 0.00 | 0.00 | 65 | 1009.4 |
| 20260506172603 | 19 | 189 | 35.4 | 61.2 | 0.00 | 0.00 | 0.00 | 66 | 1009.3 |
| 20260506171623 | 18 | 190 | 38.6 | 54.7 | 0.00 | 0.00 | 0.00 | 66 | 1009.3 |
| 20260506170603 | 19 | 180 | 38.6 | 62.8 | 0.00 | 0.00 | 0.00 | 67 | 1009.3 |
| 20260506165603 | 18 | 182 | 38.6 | 61.2 | 0.00 | 0.00 | 0.00 | 67 | 1009.4 |
| 20260506164603 | 18 | 189 | 38.6 | 72.4 | 0.00 | 0.00 | 0.00 | 67 | 1009.5 |
| 20260506163603 | 19 | 189 | 37.0 | 61.2 | 0.00 | 0.00 | 0.00 | 67 | 1009.7 |
| 20260506162603 | 19 | 187 | 33.8 | 57.9 | 0.00 | 0.00 | 0.00 | 66 | 1009.9 |
| 20260506161602 | 19 | 194 | 37.0 | 66.0 | 0.00 | 0.00 | 0.00 | 66 | 1009.9 |
| 20260506160603 | 19 | 182 | 25.7 | 51.5 | 0.00 | 0.00 | 0.00 | 66 | 1010.1 |
| 20260506155602 | 19 | 178 | 32.2 | 53.1 | 0.00 | 0.00 | 0.00 | 66 | 1010.2 |
| 20260506154603 | 19 | 181 | 27.4 | 54.7 | 0.00 | 0.00 | 0.00 | 66 | 1010.4 |
| 20260506153602 | 20 | 179 | 32.2 | 51.5 | 0.00 | 0.00 | 0.00 | 65 | 1010.6 |
| 20260506152603 | 19 | 189 | 32.2 | 54.7 | 0.00 | 0.00 | 0.00 | 66 | 1010.8 |
| 20260506151602 | 19 | 187 | 32.2 | 46.7 | 0.00 | 0.00 | 0.00 | 65 | 1010.8 |
| 20260506150603 | 20 | 201 | 38.6 | 59.5 | 0.00 | 0.00 | 0.00 | 64 | 1010.7 |
| 20260506145603 | 19 | 191 | 40.2 | 59.5 | 0.00 | 0.00 | 0.00 | 65 | 1010.7 |
| 20260506144603 | 19 | 187 | 35.4 | 51.5 | 0.00 | 0.00 | 0.00 | 66 | 1010.6 |
| 20260506143603 | 18 | 190 | 30.6 | 59.5 | 0.00 | 0.00 | 0.00 | 66 | 1010.5 |
| 20260506142602 | 18 | 187 | 35.4 | 62.8 | 0.00 | 0.00 | 0.00 | 68 | 1010.5 |
| 20260506141603 | 18 | 184 | 32.2 | 53.1 | 0.00 | 0.00 | 0.00 | 68 | 1010.4 |
| 20260506140602 | 18 | 184 | 29.0 | 59.5 | 0.00 | 0.00 | 0.00 | 70 | 1010.5 |
| 20260506135603 | 18 | 189 | 35.4 | 51.5 | 0.00 | 0.00 | 0.00 | 70 | 1010.4 |
| 20260506134602 | 18 | 188 | 29.0 | 48.3 | 0.00 | 0.00 | 0.00 | 70 | 1010.6 |
| 20260506133603 | 18 | 188 | 32.2 | 45.1 | 0.00 | 0.00 | 0.00 | 71 | 1011.1 |
| 20260506132623 | 17 | 191 | 22.5 | 46.7 | 0.00 | 0.00 | 0.00 | 75 | 1011.1 |
| 20260506131603 | 17 | 189 | 29.0 | 48.3 | 0.00 | 0.00 | 0.00 | 73 | 1011.2 |
| 20260506130603 | 16 | 197 | 29.0 | 53.1 | 0.00 | 0.00 | 0.00 | 76 | 1011.2 |
| 20260506125603 | 16 | 188 | 29.0 | 43.5 | 0.00 | 0.00 | 0.00 | 78 | 1011.0 |
| 20260506124603 | 16 | 199 | 29.0 | 51.5 | 0.00 | 0.00 | 0.00 | 80 | 1011.2 |
| 20260506123624 | 15 | 191 | 24.1 | 59.5 | 0.00 | 0.00 | 0.00 | 82 | 1011.1 |
| 20260506121603 | 15 | 187 | 29.0 | 45.1 | 0.00 | 0.00 | 0.00 | 83 | 1010.9 |
| 20260506120603 | 14 | 192 | 29.0 | 57.9 | 0.00 | 0.00 | 0.00 | 85 | 1011.4 |
| 20260506115602 | 14 | 191 | 30.6 | 51.5 | 0.00 | 0.00 | 0.00 | 85 | 1011.5 |
| 20260506114603 | 14 | 187 | 32.2 | 45.1 | 0.00 | 0.00 | 0.00 | 85 | 1011.8 |
| 20260506113602 | 13 | 188 | 29.0 | 51.5 | 0.00 | 0.00 | 0.00 | 86 | 1011.7 |
| 20260506112603 | 13 | 187 | 25.7 | 51.5 | 0.00 | 0.00 | 0.00 | 87 | 1011.7 |
| 20260506111602 | 13 | 181 | 29.0 | 54.7 | 0.00 | 0.00 | 0.00 | 88 | 1011.5 |
| 20260506110624 | 13 | 191 | 32.2 | 46.7 | 0.00 | 0.00 | 0.00 | 89 | 1011.5 |
| 20260506105603 | 13 | 184 | 25.7 | 46.7 | 0.00 | 0.00 | 0.00 | 89 | 1011.5 |
| 20260506103602 | 13 | 185 | 25.7 | 41.8 | 0.00 | 0.00 | 0.00 | 88 | 1011.6 |
| 20260506102645 | 13 | 187 | 29.0 | 48.3 | 0.00 | 0.00 | 0.00 | 88 | 1011.5 |
| 20260506101602 | 13 | 188 | 27.4 | 56.3 | 0.00 | 0.00 | 0.00 | 88 | 1011.5 |
| 20260506100603 | 13 | 190 | 30.6 | 48.3 | 0.00 | 0.00 | 0.00 | 87 | 1011.4 |
| 20260506095603 | 13 | 192 | 30.6 | 46.7 | 0.00 | 0.00 | 0.00 | 87 | 1011.2 |
| 20260506094603 | 13 | 190 | 33.8 | 45.1 | 0.00 | 0.00 | 0.00 | 87 | 1011.2 |
| 20260506093602 | 13 | 200 | 29.0 | 48.3 | 0.00 | 0.00 | 0.00 | 87 | 1011.2 |
| 20260506091602 | 13 | 192 | 32.2 | 48.3 | 0.00 | 0.00 | 0.00 | 87 | 1011.2 |
| 20260506090624 | 13 | 196 | 27.4 | 49.9 | 0.00 | 0.00 | 0.00 | 86 | 1011.3 |
| 20260506085602 | 13 | 193 | 32.2 | 56.3 | 0.00 | 0.00 | 0.00 | 86 | 1011.3 |
| 20260506084603 | 13 | 185 | 29.0 | 56.3 | 0.00 | 0.00 | 0.00 | 85 | 1011.4 |
| 20260506083602 | 13 | 191 | 33.8 | 49.9 | 0.00 | 0.00 | 0.00 | 85 | 1011.4 |
| 20260506082603 | 13 | 192 | 30.6 | 51.5 | 0.00 | 0.00 | 0.00 | 83 | 1011.5 |
| 20260506081603 | 14 | 190 | 33.8 | 51.5 | 0.00 | 0.00 | 0.00 | 83 | 1011.3 |
| 20260506080603 | 14 | 192 | 30.6 | 51.5 | 0.00 | 0.00 | 0.00 | 82 | 1011.3 |
| 20260506072603 | 14 | 200 | 30.6 | 51.5 | 0.00 | 0.00 | 0.00 | 82 | 1011.2 |
| 20260506071602 | 14 | 195 | 35.4 | 59.5 | 0.00 | 0.00 | 0.00 | 82 | 1011.3 |
| 20260506070603 | 14 | 192 | 37.0 | 51.5 | 0.00 | 0.00 | 0.00 | 81 | 1011.2 |
| 20260506061602 | 14 | 200 | 32.2 | 56.3 | 0.00 | 0.00 | 0.00 | 78 | 1011.3 |
| 20260506060603 | 14 | 198 | 38.6 | 59.5 | 0.00 | 0.00 | 0.00 | 78 | 1011.1 |